Location: Unspecified
(43.4354°N, 0.0000°E)
Time: 09:46:31
(UTC+00:00)

A-11 Canister half - Pass Details

Date: 29 June 2019
Orbit: 1514 x 1686 km, 47.2° (Epoch: 24 August)

Event Time Altitude Azimuth Distance (km) Brightness Sun altitude
Rises 06:42:57 0° 194° (SSW) 4,926 11.4 22.7°
Reaches altitude 10° 06:46:44 10° 183° (S) 3,938 11.1 23.4°
Maximum altitude 06:54:46 28° 130° (SE) 2,768 11.2 24.8°
Drops below altitude 10° 07:02:40 10° 77° (ENE) 3,887 13.0 26.2°
Sets 07:06:20 0° 67° (ENE) 4,852 12.8 26.9°
